Welcome to the New NWS' Forecast!
Most changes are behind the scenes, but click here for differences you might notice.
Latest weather observations around

Seattle, Seattle Boeing Field (KBFI)

Using English Units (Switch to International System of Units)
Date/ Time (PST) Wind (mph) Vis. (mi) Weather Sky Cond. Temp (°F) Rel. Humidity Wind Chill (°F) Heat Index (°F) Pressure Precip. (in)
Air Dwpt 6 hour Altimeter (inHg) Sea level (inHg) 1 hr 3 hr 6 hr
Max Min
Dec 09 10:53 SE 10 7 Light Rain SCT042 OVC055 44 38     79% 39   30.17 30.17 0    
Dec 09 09:53 WSW 3 7 Light Rain SCT047 OVC060 45 40     82% 44   30.16 30.16 0   0
Dec 09 08:53 SSE 6 10 Light Rain OVC050 46 36     68% 43   30.14 30.14 0    
Dec 09 07:53 SE 8 10 Cloudy OVC047 48 31     51% 44   30.14 30.14 0    
Dec 09 06:53 SSE 5 10 Cloudy OVC055 47 31     53% 45   30.14 30.14      
Dec 09 05:53 S 8 10 Cloudy OVC060 48 30     50% 44   30.15 30.14      
Dec 09 04:53 Calm 10 Cloudy BKN060 OVC075 48 29     47%     30.14 30.14      
Dec 09 03:53 SE 11 10 Cloudy OVC070 48 28     46% 43   30.15 30.15      
Dec 09 02:53 SE 8 10 Mostly Clear FEW060 FEW075 47 28     48% 43   30.18 30.18      
Dec 09 01:53 SE 8 10 Partly Cloudy SCT070 47 26     44% 43   30.2 30.2      
Dec 09 00:53 SE 7 10 Mostly Clear FEW060 45 28     51% 41   30.21 30.21      
Dec 08 23:53 SE 13 10 Clear CLR 46 26     45% 40   30.25 30.24      
Dec 08 22:53 SE 3 10 Clear CLR 43 28     55% 41   30.27 30.27      
Dec 08 21:53 SSE 5 10 Partly Cloudy SCT060 43 28     55% 40   30.27 30.27      
Dec 08 20:53 SE 8 10 Partly Cloudy SCT055 45 28     51% 41   30.28 30.27      
Dec 08 19:53 SSE 3 10 Mostly Cloudy BKN060 45 28     51% 44   30.29 30.29      
Dec 08 18:53 SE 5 10 Cloudy OVC060 45 30     56% 43   30.3 30.29      
Dec 08 17:53 SE 7 10 Mostly Cloudy BKN065 44 31     60% 40   30.31 30.3      
Dec 08 16:53 Calm 10 Cloudy OVC060 44 35     70%     30.32 30.32      
Dec 08 15:53 Calm 10 Clear CLR 46 34     63%     30.32 30.32     0
Dec 08 14:53 Calm 10 Clear CLR 46 34     63%     30.33 30.32      
Dec 08 13:53 SE 3 10 Mostly Cloudy BKN055 47 33     58% 46   30.34 30.33      
Dec 08 12:53 SSE 5 10 Cloudy OVC035 44 34     67% 41   30.35 30.34   0  
Dec 08 11:53 SSE 5 10 Cloudy OVC033 43 33     68% 40   30.35 30.35      
Dec 08 10:53 SSE 7 10 Cloudy OVC030 42 33     70% 38   30.36 30.35 0    
Dec 08 09:53 SSE 10 10 Light Rain SCT025 OVC037 42 32     67% 36   30.35 30.35 0   0
Dec 08 08:53 SE 5 10 Clear   41 32     70% 38   30.33 30.33      
Dec 08 07:53 Calm 10 Cloudy OVC037 42 30     62%     30.3 30.3      
Dec 08 06:53 Calm 10 Cloudy OVC032 41 31     67%     30.29 30.29   0  
Dec 08 05:53 Calm 10 Cloudy OVC032 39 32     76%     30.28 30.28 0    
Dec 08 04:53 Calm 10 Light Rain SCT037 OVC048 40 31     70%     30.28 30.27 0    
Dec 08 03:53 Calm 10 Cloudy BKN055 OVC070 39 29     67%     30.27 30.26     0
Dec 08 02:53 Calm 10 Cloudy FEW036 BKN047 OVC080 39 28     64%     30.26 30.26 0    
Dec 08 01:53 Calm 10 Light Rain SCT039 BKN049 OVC060 39 27     62%     30.25 30.25 0    
Dec 08 00:53 Calm 10 Partly Cloudy FEW080 SCT120 39 24     55%     30.24 30.23      
Dec 07 23:53 SE 7 10 Mostly Clear FEW075 37 24     59% 32   30.22 30.22      
Dec 07 22:53 SE 3 10 Partly Cloudy SCT070 39 23     52% 37   30.22 30.22      
Dec 07 21:53 SE 5 10 Partly Cloudy SCT120 39 22     50% 36   30.2 30.2      
Dec 07 20:53 SSE 6 10 Partly Cloudy SCT120 39 23     52% 35   30.19 30.19      
Dec 07 19:53 SE 7 10 Mostly Clear FEW110 40 23     50% 35   30.18 30.18      
Dec 07 18:53 SSE 7 10 Clear CLR 41 22     46% 36   30.17 30.17      
Dec 07 17:53 SSE 8 10 Clear CLR 41 22     46% 36   30.16 30.16      
Dec 07 16:53 SE 7 10 Mostly Cloudy SCT140 BKN200 42 22     44% 38   30.16 30.15      
Dec 07 15:53 SE 8 10 Mostly Cloudy BKN150 41 23     48% 36   30.14 30.14      
Dec 07 14:53 SSE 9 10 Clear CLR 46 22     38% 41   30.13 30.13      
Dec 07 13:53 S 8 10 Mostly Cloudy BKN200 47 22     37% 43   30.12 30.12      
Dec 07 12:53 SSE 8 10 Mostly Cloudy BKN200 46 22     38% 42   30.13 30.13      
Dec 07 11:53 SSE 8 10 Mostly Cloudy BKN200 45 22     40% 41   30.14 30.13      
Dec 07 10:53 SE 5 10 Mostly Cloudy BKN200 42 22     44% 39   30.14 30.14      
Dec 07 09:53 S 3 10 Clear CLR 39 23     52% 37   30.15 30.15      
Dec 07 08:53 Calm 10 Clear CLR 31 22     69%     30.15 30.15      
Dec 07 07:53 Calm 10 Mostly Clear FEW080 30 21     69%     30.14 30.14      
Dec 07 06:53 Calm 10 Clear CLR 28 20     71%     30.13 30.13      
Dec 07 05:53 Calm 10 Clear CLR 28 20     71%     30.13 30.13      
Dec 07 04:53 Calm 10 Clear CLR 27 20     75%     30.12 30.11      
Dec 07 03:53 Calm 10 Clear CLR 27 20     75%     30.12 30.11      
Dec 07 02:53 Calm 10 Clear CLR 27 20     75%     30.11 30.11      
Dec 07 01:53 Calm 10 Clear CLR 28 19     69%     30.11 30.11      
Dec 07 00:53 Calm 10 Clear CLR 29 20     69%     30.11 30.11      
Dec 06 23:53 Calm 10 Clear CLR 31 20     63%     30.11 30.1      
Dec 06 22:53 Calm 10 Clear CLR 33 19     56%     30.1 30.1      
Dec 06 21:53 Calm 10 Clear CLR 34 19     54%     30.1 30.1      
Dec 06 20:53 ESE 5 10 Clear CLR 35 18     49% 31   30.11 30.11      
Dec 06 19:53 ESE 7 10 Clear CLR 38 17     42% 33   30.12 30.11      
Dec 06 18:53 SE 5 10 Clear CLR 37 19     48% 33   30.12 30.11      
Dec 06 17:53 SE 5 10 Clear CLR 37 18     46% 33   30.11 30.1      
Dec 06 16:53 E 3 10 Clear CLR 41 20     43% 39   30.11 30.11      
Dec 06 15:53 Calm 10 Clear CLR 46 18     32%     30.1 30.1      
Dec 06 14:53 Calm 10 Clear CLR 46 17     31%     30.11 30.11      
Dec 06 13:53 NW 6 10 Clear CLR 45 22     40% 42   30.13 30.12      
Dec 06 12:53 NNW 7 10 Clear CLR 44 22     41% 40   30.13 30.13      
Dec 06 11:53 NW 3 10 Clear CLR 43 21     41% 41   30.14 30.14      
Dec 06 10:53 NW 3 10 Clear CLR 41 24     51% 39   30.16 30.16      
Dec 06 09:53 NW 3 10 Clear CLR 38 26     62% 36   30.16 30.16      
Dec 06 08:53 Calm 10 Clear CLR 32 25     75%     30.15 30.15      
Dec 06 07:53 Calm 10 Clear CLR 27 22     81%     30.15 30.15      
Dec 06 06:53 Calm 10 Clear CLR 28 22     78%     30.16 30.16      
Dec 06 05:53 Calm 10 Clear CLR 27 21     78%     30.17 30.17      
Dec 06 04:53 Calm 10 Clear CLR 27 21     78%     30.17 30.17      
Dec 06 03:53 Calm 10 Clear CLR 28 21     75%     30.18 30.17      
Dec 06 02:53 Calm 10 Clear CLR 30 21     69%     30.18 30.18      
Dec 06 01:53 Calm 10 Clear CLR 29 20     69%     30.17 30.17      
Dec 06 00:53 Calm 10 Clear CLR 29 22     75%     30.17 30.17      
Dec 05 23:53 Calm 10 Clear CLR 31 23     72%     30.17 30.17      
Dec 05 22:53 N 3 10 Clear CLR 32 25     75% 29   30.17 30.16      
Dec 05 21:53 SE 3 10 Clear CLR 30 23     75% 27   30.16 30.16      
Dec 05 20:53 Calm 10 Clear CLR 30 23     75%     30.16 30.16      
Dec 05 19:53 Calm 10 Clear CLR 34 25     69%     30.16 30.16      
Dec 05 18:53 NNE 3 10 Clear CLR 37 25     61% 35   30.16 30.15      
Dec 05 17:53 Calm 10 Clear CLR 38 25     59%     30.15 30.15      
Dec 05 16:53 NE 7 10 Clear CLR 43 25     49% 39   30.16 30.16      
Dec 05 15:53 NNE 3 10 Clear CLR 45 24     44% 44   30.16 30.16      
Dec 05 14:53 6 10 Clear CLR 46 24     42% 43   30.16 30.16      
Dec 05 13:53 5 10 Clear CLR 46 24     42% 44   30.16 30.16      
Dec 05 12:53 Calm 10 Clear CLR 45 24     44%     30.17 30.16      
Dec 05 11:53 NNW 8 10 Clear CLR 43 27     53% 38   30.18 30.18      
Dec 05 10:53 6 10 Clear CLR 42 27     55% 38   30.19 30.19      
Dec 05 09:53 N 8 10 Clear CLR 39 27     62% 33   30.2 30.19      
Dec 05 08:53 NE 7 10 Clear CLR 35 27     72% 29   30.2 30.19      
Dec 05 07:53 Calm 10 Clear CLR 32 26     78%     30.19 30.18      
Dec 05 06:53 Calm 10 Clear CLR 33 27     78%     30.18 30.17      
Dec 05 05:53 3 10 Clear CLR 34 27     75% 31   30.17 30.17      
Dec 05 04:53 Calm 10 Clear CLR 30 24     78%     30.18 30.18      
Dec 05 03:53 Calm 10 Clear CLR 31 27     85%     30.19 30.19      
Dec 05 02:53 3 10 Clear CLR 31 25     78% 28   30.2 30.19      
Dec 05 01:53 SSE 3 10 Clear CLR 29 25     85% 25   30.2 30.2      
Dec 05 00:53 W 3 10 Clear CLR 33 26     75% 30   30.2 30.2      
Dec 04 23:53 Calm 10 Clear CLR 35 27     72%     30.2 30.2      
Dec 04 22:53 ENE 3 10 Clear CLR 36 27     70% 33   30.21 30.2      
Dec 04 21:53 Calm 10 Clear CLR 37 27     67%     30.21 30.2      
Dec 04 20:53 Calm 10 Clear CLR 37 27     67%     30.2 30.2      
Dec 04 19:53 N 5 10 Clear CLR 38 27     64% 34   30.2 30.2      
Dec 04 18:53 3 10 Clear CLR 38 27     64% 36   30.21 30.2      
Dec 04 17:53 5 10 Clear CLR 39 27     62% 36   30.22 30.21      
Dec 04 16:53 N 7 10 Clear CLR 41 27     57% 36   30.23 30.22      
Dec 04 15:53 6 10 Clear CLR 45 26     47% 42   30.23 30.23      
Dec 04 14:53 NNE 6 10 Clear CLR 47 25     42% 44   30.25 30.24      
Dec 04 13:53 NNW 6 10 Clear CLR 47 27     46% 44   30.26 30.26      
Dec 04 12:53 5 10 Clear CLR 47 26     44% 45   30.28 30.28      
Dec 04 11:53 5 10 Clear CLR 47 25     42% 45   30.31 30.31      
Dec 04 10:53 NNE 6 10 Clear CLR 44 24     45% 41   30.33 30.33      
Dec 04 09:53 3 10 Clear CLR 41 27     57% 39   30.34 30.34      
Dec 04 08:53 5 10 Clear CLR 37 27     67% 33   30.35 30.34      
Dec 04 07:53 Calm 10 Clear CLR 33 27     78%     30.35 30.35      
Dec 04 06:53 3 10 Clear CLR 33 29     85% 30   30.35 30.35      
Dec 04 05:53 Calm 10 Clear CLR 34 29     82%     30.36 30.36      
Dec 04 04:53 Calm 10 Clear CLR 33 27     78%     30.36 30.36      
Dec 04 03:53 N 3 10 Clear CLR 35 27     72% 32   30.36 30.36      
Dec 04 02:53 Calm 10 Clear CLR 34 29     82%     30.35 30.35      
Dec 04 01:53 Calm 10 Clear CLR 37 32     82%     30.35 30.35      
Dec 04 00:53 N 5 10 Clear CLR 38 30     73% 34   30.36 30.35      
Dec 03 23:53 NE 7 10 Clear CLR 39 31     72% 34   30.35 30.35      
Dec 03 22:53 NW 3 10 Clear CLR 39 32     76% 37   30.36 30.36      
Dec 03 21:53 Calm 10 Clear CLR 39 33     79%     30.36 30.36      
Dec 03 20:53 NNE 5 10 Clear CLR 40 33     76% 37   30.37 30.37      
Dec 03 19:53 NNE 5 10 Clear CLR 40 34     79% 37   30.36 30.36      
Dec 03 18:53 NNE 3 10 Clear CLR 41 34     76% 39   30.37 30.36      
Dec 03 17:53 N 5 10 Clear CLR 42 35     76% 39   30.36 30.36      
Dec 03 16:53 6 10 Clear CLR 43 34     70% 39   30.35 30.35      
Dec 03 15:53 N 6 10 Clear CLR 45 34     65% 42   30.34 30.34      
Dec 03 14:53 6 10 Clear CLR 47 34     60% 44   30.34 30.33      
Dec 03 13:53 6 10 Mostly Clear FEW020 47 34     60% 44   30.33 30.33      
Dec 03 12:53 NW 7 10 Mostly Clear FEW019 46 37     71% 42   30.34 30.34      
Dec 03 11:53 NE 5 10 Mostly Clear FEW020 45 34     65% 43   30.35 30.35      
Dec 03 10:53 3 10 Mostly Clear FEW020 42 34     73% 40   30.36 30.36      
Dec 03 10:15 Calm 10 Partly Cloudy SCT004 40 33     76%     30.37        
Dec 03 09:53 Calm 10 Mostly Cloudy BKN004 38 34     85%     30.36 30.36      
Dec 03 09:32 NNE 3 6 Mostly Cloudy BKN004 37 34     89% 35   30.36        
Dec 03 08:53 Calm 2 Fog/Mist OVC003 37 35     92%     30.36 30.35      
Dec 03 07:53 Calm 2 Fog/Mist OVC002 38 36     92%     30.34 30.34      
Dec 03 06:53 5 2 Fog/Mist OVC003 38 36     92% 34   30.34 30.33      
Dec 03 05:53 Calm 1 Fog/Mist OVC004 39 37     93%     30.33 30.33      
Dec 03 04:53 Calm 1 Fog/Mist OVC003 40 38     93%     30.33 30.32      
Dec 03 03:53 Calm 2 Fog/Mist OVC004 40 39     97%     30.32 30.32      
Dec 03 01:53 Calm 3 Fog/Mist BKN004 OVC015 41 38     89%     30.3 30.3      
Dec 03 00:53 ENE 3 3 Fog/Mist BKN004 OVC015 41 39     93% 39   30.29 30.29      
Dec 02 23:53 Calm 4 Fog/Mist OVC004 42 39     89%     30.29 30.29      
Dec 02 22:53 Calm 4 Fog/Mist BKN006 OVC060 40 38     93%     30.28 30.27      
Dec 02 21:53 Calm 6 Fog/Mist FEW009 SCT017 OVC065 40 38     93%     30.26 30.25      
Dec 02 21:51 Calm 6 Fog/Mist FEW009 BKN017 OVC065 39 37     93%     30.26        
Dec 02 20:53 Calm 8 Mostly Clear FEW065 41 38     89%     30.24 30.24      
Dec 02 19:53 Calm 7 Mostly Cloudy BKN065 41 38     89%     30.23 30.23      
Dec 02 18:53 Calm 10 Partly Cloudy SCT014 SCT060 43 39     86%     30.22 30.22      
Dec 02 17:53 Calm 10 Cloudy FEW020 OVC065 45 39     80%     30.21 30.21      
Dec 02 16:53 Calm 10 Cloudy FEW020 OVC070 45 39     80%     30.21 30.2      
Dec 02 15:53 Calm 10 Mostly Cloudy FEW018 BKN060 46 39     76%     30.2 30.19 0   0
Dec 02 14:53 Calm 10 Cloudy FEW015 OVC060 46 39     76%     30.18 30.18      
Dec 02 13:53 Calm 10 Cloudy BKN015 BKN021 OVC060 47 39     74%     30.17 30.17 0    
Dec 02 12:53 Calm 10 Cloudy BKN015 BKN021 OVC060 46 38     73%     30.17 30.16      
Dec 02 11:53 NW 3 10 Cloudy BKN015 BKN021 OVC060 46 40     79% 45   30.15 30.15      
Dec 02 10:53 SE 3 10 Cloudy FEW006 BKN012 OVC022 45 40     82% 44   30.15 30.14      
Dec 02 10:12 SE 7 10 Cloudy FEW006 BKN012 OVC022 44 40     85% 40   30.15        
Dec 02 09:53 SE 7 9 Cloudy FEW006 BKN012 OVC022 44 40     85% 40   30.15 30.14      
Dec 02 08:53 SSE 3 10 Cloudy SCT006 BKN027 OVC043 43 40     89% 41   30.12 30.12      
Dec 02 07:53 SE 6 7 Cloudy SCT006 BKN027 OVC035 43 40     89% 39   30.1 30.1      
Dec 02 07:12 SE 5 7 Cloudy SCT006 BKN020 OVC027 43 40     89% 40   30.09        
Dec 02 06:53 SE 6 8 Cloudy BKN006 OVC027 43 40     89% 39   30.08 30.08      
Dec 02 05:53 Calm 5 Fog/Mist BKN006 OVC027 43 40     89%     30.07 30.06      
Dec 02 04:53 Calm 5 Fog/Mist BKN006 OVC033 43 41     93%     30.05 30.05      
Dec 02 04:35 ESE 3 5 Fog/Mist BKN006 OVC033 42 40     92% 40   30.05        
Dec 02 03:53 SSE 5 5 Fog/Mist BKN006 OVC033 43 41     93% 40   30.04 30.03     0
Dec 02 03:30 SSE 3 8 Cloudy SCT006 OVC031 43 41     93% 41   30.03        
Dec 02 02:53 Calm 10 Cloudy OVC030 43 40     89%     30.03 30.03 0    
Dec 02 01:53 Calm 10 Light Rain OVC032 43 40     89%     30.02 30.02 0    
Dec 02 00:53 Calm 10 Light Rain OVC033 44 40     85%     30.01 30.01 0 0  
Dec 01 23:53 Calm 7 Light Rain OVC028 44 41     89%     30.01 30.01 0    
Dec 01 22:53 Calm 7 Light Rain BKN018 OVC030 44 41     89%     30 30 0    
Dec 01 21:53 Calm 10 Cloudy BKN018 OVC031 44 41     89%     29.98 29.98     0
Dec 01 20:53 Calm 10 Cloudy OVC018 44 41     89%     29.96 29.96      
Dec 01 19:53 Calm 10 Cloudy SCT020 BKN028 OVC045 43 40     89%     29.95 29.95      
Dec 01 18:53 Calm 10 Cloudy FEW020 OVC050 44 40     85%     29.94 29.93   0  
Dec 01 17:53 Calm 10 Cloudy OVC045 45 40     82%     29.93 29.93 0    
Dec 01 17:20 E 5 10 Cloudy BKN032 OVC041 45 40     82% 43   29.93   0    
Dec 01 16:53 Calm 10 Cloudy FEW015 BKN029 OVC035 46 40     79%     29.92 29.91      
Dec 01 15:53 Calm 10 Cloudy FEW015 BKN020 OVC075 45 40     82%     29.91 29.91     0
Dec 01 14:53 Calm 10 Mostly Cloudy FEW015 SCT019 BKN040 46 40     79%     29.9 29.89      
Dec 01 13:53 Calm 10 Mostly Cloudy FEW015 SCT026 BKN045 45 40     82%     29.89 29.88 0    
Dec 01 12:53 E 6 10 Light Rain SCT015 BKN033 OVC070 46 40     79% 43   29.88 29.88 0 0  
Dec 01 11:53 NE 5 10 Light Rain SCT008 BKN022 OVC045 46 41     82% 44   29.88 29.88 0    
Dec 01 11:06 Calm 10 Light Rain SCT008 BKN020 OVC060 46 38     73%     29.88   0    
Dec 01 10:53 Calm 10 Cloudy FEW002 BKN043 OVC060 47 40     76%     29.88 29.88      
Dec 01 09:53 Calm 8 Mostly Cloudy FEW002 BKN040 44 41     89%     29.87 29.87      
Dec 01 09:49 Calm 8 Mostly Cloudy FEW002 BKN040 45 41     87%     29.87        
Dec 01 08:53 WSW 3 10 Cloudy OVC037 43 40     89% 41   29.86 29.85      
Dec 01 07:53 Calm 10 Mostly Cloudy SCT027 BKN040 41 38     89%     29.84 29.83      
Dec 01 06:53 Calm 6 Fog/Mist BKN037 38 37     97%     29.83 29.83      
Dec 01 05:53 Calm 10 Partly Cloudy FEW015 SCT060 41 38     89%     29.81 29.81      
Dec 01 04:53 Calm 10 Mostly Cloudy FEW015 SCT045 BKN060 42 39     89%     29.81 29.81      
Dec 01 03:53 Calm 10 Mostly Cloudy FEW042 BKN055 43 40     89%     29.8 29.8     0
Dec 01 02:53 Calm 10 Cloudy OVC042 43 41     93%     29.79 29.79      
Dec 01 01:53 Calm 10 Cloudy FEW015 BKN039 OVC060 43 40     89%     29.79 29.78      
Dec 01 00:53 Calm 10 Cloudy SCT037 OVC050 43 40     89%     29.79 29.78   0  
Nov 30 23:53 Calm 10 Cloudy SCT030 BKN055 OVC070 43 40     89%     29.79 29.79 0    
Nov 30 22:53 E 5 10 Light Rain FEW030 BKN042 44 40     85% 41   29.78 29.78 0    
Nov 30 21:53 SE 6 10 Cloudy FEW035 SCT042 OVC049 44 40     85% 41   29.77 29.77 0   0
Nov 30 20:53 SSE 13 8 Light Rain FEW014 BKN027 44 41     89% 38   29.76 29.76 0    
Nov 30 19:53 SSE 8 8 Light Rain FEW014 BKN020 OVC035 45 42     90% 41   29.75 29.75 0    
Nov 30 18:53 SSE 6 6 Light Rain and Fog/Mist SCT030 OVC034 46 41     82% 43   29.73 29.73 0 0  
Nov 30 17:53 Calm 10 Cloudy SCT050 OVC070 49 40     71%     29.72 29.72      
Nov 30 16:53 SE 3 10 Mostly Cloudy FEW030 BKN100 48 39     71% 47   29.73 29.73      
Nov 30 15:53 7 10 Mostly Cloudy FEW037 BKN100 49 39     69% 46   29.74 29.73      
Nov 30 14:53 SSE 11 10 Partly Cloudy SCT027 SCT035 49 39     69% 44   29.73 29.73      
Nov 30 13:53 S 13 10 Mostly Cloudy FEW022 SCT030 BKN043 49 41     74% 44   29.75 29.75      
Nov 30 12:53 S 11 10 Cloudy SCT022 BKN028 OVC042 49 40     71% 44   29.77 29.77      
Nov 30 11:53 S 11 10 Cloudy BKN022 BKN028 OVC040 49 40     71% 44   29.78 29.78      
Nov 30 11:42 SSW 10 10 Cloudy SCT023 BKN028 OVC095 49 41     74% 45   29.78        
Nov 30 10:53 S 8 10 Mostly Cloudy SCT038 BKN110 48 41     77% 44   29.78 29.78      
Nov 30 09:53 S 9 10 Mostly Cloudy SCT019 BKN046 BKN060 48 41     77% 44   29.77 29.77      
Nov 30 08:53 SE 9 10 Mostly Cloudy SCT017 BKN040 47 42     83% 43   29.77 29.76      
Nov 30 07:59 SSE 7 10 Mostly Cloudy SCT014 BKN020 45 41     86% 41   29.76        
Nov 30 07:53 SE 8 10 Cloudy SCT014 OVC020 45 41     86% 41   29.75 29.75      
Nov 30 06:53 S 8 10 Cloudy SCT012 OVC024 46 41     82% 42   29.75 29.75      
Nov 30 05:53 SSE 7 10 Cloudy BKN012 BKN017 OVC030 46 42     86% 42   29.74 29.74      
Nov 30 04:53 SSE 7 9 Cloudy BKN013 OVC022 45 43     93% 41   29.73 29.72      
Nov 30 04:24 SE 6 10 Cloudy BKN014 OVC020 45 43     93% 42   29.72        
Nov 30 03:53 SSE 6 10 Cloudy FEW010 BKN020 OVC060 45 42     90% 42   29.72 29.72     0
Nov 30 03:13 SE 5 10 Cloudy FEW009 BKN015 OVC023 45 42     90% 43   29.72        
Nov 30 03:01 SSE 6 10 Cloudy SCT009 OVC014 45 42     90% 42   29.72        
Nov 30 02:53 SE 6 10 Cloudy BKN009 OVC014 45 42     90% 42   29.72 29.72      
Nov 30 02:42 SE 8 10 Cloudy BKN009 OVC015 45 42     90% 41   29.72        
Nov 30 02:05 SSE 6 10 Cloudy BKN013 OVC025 45 42     90% 42   29.72        
Nov 30 01:53 SSE 6 10 Cloudy BKN026 OVC065 44 42     93% 41   29.72 29.71 0    
Nov 30 00:53 SE 7 10 Light Rain FEW012 OVC024 46 42     86% 42   29.7 29.7 0 0  
Nov 29 23:53 ESE 5 10 Cloudy SCT012 OVC026 46 42     86% 44   29.7 29.7      
Nov 29 22:53 ESE 3 10 Cloudy BKN012 OVC022 47 42     83% 46   29.69 29.69      
Nov 29 21:53 NE 3 10 Clear   48 43     83% 47   29.69 29.69      
Nov 29 20:53 Calm 10 Cloudy OVC020 48 43     83%     29.67 29.67      
Nov 29 19:53 Calm 10 Cloudy BKN013 OVC020 48 43     83%     29.67 29.67      
Nov 29 18:53 Calm 10 Partly Cloudy SCT014 48 43     83%     29.66 29.66      
Nov 29 17:53 Calm 10 Mostly Clear FEW012 48 43     83%     29.66 29.66      
Nov 29 16:53 Calm 10 Partly Cloudy SCT022 49 42     77%     29.65 29.65      
Nov 29 15:53 Calm 10 Mostly Cloudy SCT020 BKN070 50 43     77%     29.65 29.65      
Nov 29 14:53 5 10 Mostly Cloudy SCT019 BKN070 50 43     77%     29.65 29.65      
Nov 29 13:53 6 10 Mostly Cloudy SCT019 BKN070 50 43     77%     29.65 29.65      
Nov 29 12:53 3 10 Mostly Cloudy FEW013 BKN020 BKN025 51 44     77%     29.65 29.65      
Nov 29 12:19 3 10 Cloudy BKN020 BKN027 OVC200 50 44     80%     29.66        
Nov 29 11:53 NNE 5 10 Mostly Clear FEW011 50 44     80%     29.65 29.65      
Nov 29 11:42 6 10 Partly Cloudy SCT009 49 44     83% 46   29.66        
Nov 29 10:53 5 10 Cloudy OVC006 47 44     90% 45   29.67 29.67      
Nov 29 09:53 N 5 10 Cloudy OVC004 45 43     93% 43   29.67 29.66      
Nov 29 09:00 Calm 7 Patchy Fog OVC004 46 44     93%     29.67        
Nov 29 08:53 5 7 Patchy Fog BKN006 46 44     93% 44   29.67 29.67      
Nov 29 08:28 Calm 10 Patchy Fog BKN006 46 43     89%     29.67        
Nov 29 07:53 Calm 10 Partly Cloudy SCT004 45 43     93%     29.66 29.66      
Nov 29 07:32 Calm 5 Fog/Mist SCT004 44 42     93%     29.66        
Nov 29 06:53 Calm 6 Fog/Mist BKN004 45 42     90%     29.66 29.66      
Nov 29 06:44 Calm 6 Patchy Fog SCT004 44 43     96%     29.66        
Nov 29 05:53 N 3 4 Fog/Mist BKN004 BKN023 46 43     89% 45   29.66 29.66      
Nov 29 05:44 Calm 4 Fog/Mist BKN004 OVC041 46 43     89%     29.66        
Nov 29 04:53 Calm 5 Fog/Mist BKN012 BKN020 OVC043 47 44     90%     29.68 29.68      
Nov 29 04:24 Calm 5 Fog/Mist SCT011 BKN024 BKN043 44 43     96%     29.68        
Nov 29 04:20 NNW 3 6 Fog/Mist BKN009 BKN024 BKN043 44 42     93% 43   29.67        
Nov 29 03:55 Calm 6 Fog/Mist SCT023 43 41     93%     29.67        
Nov 29 03:53 Calm 1.75 Fog/Mist SCT023 42 41     96%     29.67 29.67      
Nov 29 03:43 Calm 1.75 Fog/Mist FEW021 43 41     93%     29.67        
Nov 29 03:15 Calm 3 Fog/Mist FEW021 FEW044 44 41     89%     29.68        
Nov 29 03:08 Calm 1.25 Fog/Mist SCT021 SCT044 43 41     93%     29.68        
Nov 29 03:00 Calm 1.25 Fog/Mist BKN021 BKN045 44 42     93%     29.69        
Nov 29 02:53 Calm 8 Mostly Cloudy FEW008 BKN021 BKN045 44 42     93%     29.69 29.69      
Nov 29 02:44 Calm 8 Mostly Cloudy FEW008 BKN021 BKN045 44 42     93%     29.69        
Nov 29 02:18 Calm 8 Mostly Cloudy FEW010 SCT023 BKN045 44 42     93%     29.69        
Nov 29 02:16 Calm 1.75 Fog/Mist SCT045 44 42     93%     29.69        
Nov 29 01:53 Calm 8 Mostly Cloudy FEW010 SCT023 BKN045 45 43     93%     29.69 29.69      
Nov 29 00:53 Calm 10 Mostly Cloudy FEW029 FEW047 BKN065 46 44     93%     29.69 29.69      
Nov 29 00:00 Calm 10 Mostly Cloudy BKN029 BKN100 46 44     93%     29.7        
Nov 28 23:53 Calm 10 Cloudy SCT029 OVC100 47 44     90%     29.7 29.7      
Nov 28 23:00 ESE 3 10 Mostly Cloudy FEW007 BKN019 48 45     89% 47   29.7        
Nov 28 22:53 ESE 3 5 Fog/Mist OVC031 48 45     89% 47   29.7 29.7      
Nov 28 21:53 Calm 10 Cloudy BKN031 OVC049 48 45     89%     29.71 29.71 0   0
Nov 28 20:53 Calm 10 Light Rain FEW027 OVC040 48 46     93%     29.71 29.71 0    
Nov 28 19:53 Calm 10 Cloudy SCT048 BKN060 OVC100 48 45     89%     29.71 29.7 0    
Nov 28 18:53 E 3 10 Light Rain OVC043 49 46     90% 48   29.7 29.7 0 0  
Nov 28 17:53 6 10 Cloudy SCT010 OVC038 49 46     90% 46   29.7 29.7 0    
Nov 28 16:53 Calm 10 Cloudy SCT010 OVC040 49 46     90%     29.7 29.7 0    
Nov 28 15:53 SE 6 10 Light Rain SCT016 BKN040 49 46     90% 46   29.7 29.7 0   0
Nov 28 14:53 SSW 3 6 Light Rain and Fog/Mist SCT016 OVC044 50 46     86%     29.7 29.7 0    
Nov 28 13:53 SSE 6 10 Cloudy BKN050 OVC070 51 44     77%     29.71 29.7      
Nov 28 12:53 SE 6 10 Cloudy FEW017 OVC055 51 45     79%     29.71 29.71   0  
Nov 28 11:53 E 6 10 Cloudy FEW039 OVC070 50 45     83%     29.72 29.72 0    
Nov 28 10:53 Calm 10 Light Rain SCT027 BKN031 OVC043 50 45     83%     29.74 29.73 0    
Nov 28 09:53 Calm 10 Mostly Cloudy BKN050 BKN060 49 45     86%     29.74 29.74 0   0
Nov 28 08:53 S 3 10 Cloudy SCT039 BKN046 OVC075 49 44     83% 48   29.75 29.75 0    
Nov 28 07:53 ESE 7 10 Cloudy FEW039 BKN048 OVC060 48 44     86% 45   29.75 29.75 0    
Nov 28 06:53 ESE 6 10 Cloudy FEW016 BKN046 OVC055 49 44     83% 46   29.77 29.77   0  
Nov 28 05:53 ESE 6 10 Cloudy FEW021 BKN042 OVC060 49 45     86% 46   29.78 29.78      
Nov 28 05:34 E 5 10 Cloudy BKN023 OVC037 49 45     86% 47   29.78        
Nov 28 04:53 SE 7 10 Cloudy SCT020 BKN035 OVC042 49 45     86% 46   29.79 29.78 0    
Nov 28 04:02 Calm 10 Cloudy BKN017 BKN026 OVC036 49 46     90%     29.78   0    
Nov 28 03:53 ESE 3 7 Light Rain SCT021 OVC037 49 46     90% 48   29.78 29.78 0   0
Nov 28 02:53 SSE 11 10 Light Rain FEW024 OVC070 49 46     90% 44   29.78 29.78 0    
Nov 28 01:53 SSE 10 10 Mostly Clear FEW065 48 45     89% 43   29.77 29.77      
Nov 28 00:53 SE 9 10 Mostly Cloudy BKN055 49 46     90% 45   29.77 29.77      
Nov 27 23:53 SSE 11 10 Mostly Clear FEW022 50 46     86%     29.76 29.76      
Nov 27 22:53 SSE 8 10 Partly Cloudy SCT027 50 46     86%     29.76 29.75      
Nov 27 21:53 SSE 10 10 Partly Cloudy SCT027 49 46     90% 45   29.75 29.75     0
Nov 27 20:53 SSE 8 10 Mostly Cloudy BKN030 49 46     90% 45   29.74 29.74      
Nov 27 19:53 SSE 6 10 Cloudy SCT030 BKN036 OVC055 51 47     86%     29.73 29.73 0    
Nov 27 18:53 S 8 10 Light Rain FEW044 BKN055 BKN065 51 46     83%     29.72 29.72 0 0  
Nov 27 18:09 S 10 10 Light Rain SCT050 BKN065 OVC110 52 48     86%     29.72   0    
Nov 27 17:53 SSE 9 9 Light Rain FEW024 BKN046 OVC110 52 49     89%     29.71 29.71 0    
Nov 27 17:50 SSE 9 10 Light Rain FEW026 BKN044 OVC100 52 48     87%     29.71   0    
Nov 27 16:53 S 9 10 Mostly Cloudy BKN050 BKN065 BKN095 53 47     80%     29.71 29.71 0    
Nov 27 15:53 SE 8 10 Mostly Cloudy FEW030 SCT045 BKN055 52 48     86%     29.71 29.71 0   0
Nov 27 15:05 S 10 3 Rain SCT025 BKN049 OVC060 53 48     83%     29.71   0    
Nov 27 14:59 S 7 3 Thunderstorms and Heavy Rain SCT024 BKN038 OVC060 53 48     83%     29.72   0    
Nov 27 14:55 5 3 Rain BKN024 BKN055 OVC075 53 48     83%     29.72   0    
Nov 27 14:53 WSW 7 3 Rain SCT024 BKN055 OVC075 54 47     77%     29.72 29.72 0    
Nov 27 14:50 W 5 2.5 Rain FEW024 BKN055 OVC080 55 46     72%     29.71   0    
Nov 27 14:45 W 3 6 Light Rain BKN055 BKN080 OVC100 55 46     72%     29.71   0    
Nov 27 14:26 S 8 10 Clear   56 45     67%     29.71        
Nov 27 13:53 S 8 10 Clear   58 47     67%     29.71 29.71      
Nov 27 12:53 S 9 10 Mostly Cloudy FEW018 SCT035 BKN120 59 49     69%     29.71 29.7      
Nov 27 11:53 S 13 10 Clear   58 50     75%     29.7 29.7      
Nov 27 10:53 S 8 10 Partly Cloudy FEW008 SCT038 57 50     77%     29.7 29.7      
Nov 27 09:53 S 9 10 Cloudy SCT022 BKN070 OVC090 55 50     83%     29.7 29.69 0   0
Nov 27 09:46 S 10 10 Cloudy BKN022 BKN044 OVC090 56 50     80%     29.69   0    
Nov 27 08:53 S 11 10 Mostly Cloudy SCT035 BKN045 55 50     83%     29.67 29.67      
Nov 27 07:53 S 13 10 Cloudy SCT037 OVC045 55 50     83%     29.66 29.66      
Nov 27 06:53 S 11 10 Partly Cloudy FEW015 SCT075 54 50     86%     29.65 29.65 0 0  
Nov 27 05:53 S 11 7 Light Rain FEW032 FEW042 OVC060 55 51     86%     29.63 29.63 0    
Nov 27 04:53 SSE 10 10 Light Rain FEW037 BKN055 OVC075 56 49     77%     29.62 29.62 0    
Nov 27 03:53 SE 14 10 Mostly Cloudy SCT039 SCT060 BKN070 53 50     89%     29.61 29.61     0
Nov 27 03:07 SE 13 10 Cloudy SCT020 SCT036 OVC110 53 50     89%     29.6        
Nov 27 02:53 SSE 10 10 Cloudy BKN022 BKN031 OVC047 53 50     89%     29.64 29.63 0    
Nov 27 02:46 SE 10 10 Cloudy FEW013 BKN022 OVC041 52 50     93%     29.63   0    
Nov 27 02:33 ESE 10 3 Light Rain and Fog/Mist SCT013 SCT024 OVC032 51 49     92%     29.64   0    
Nov 27 02:27 SE 8 3 Light Rain and Fog/Mist BKN013 BKN027 OVC037 51 49     92%     29.65   0    
Nov 27 01:53 SSE 9 7 Light Rain BKN046 OVC055 51 49     92%     29.62 29.62 0    
Nov 27 00:53 SSE 6 6 Light Rain and Fog/Mist FEW035 SCT042 OVC060 50 48     93%     29.62 29.61 0 0  
Nov 26 23:53 SSE 9 5 Light Rain and Fog/Mist OVC039 50 48     93%     29.64 29.64 0    
Nov 26 22:53 SE 5 6 Light Rain and Fog/Mist OVC039 50 47     89%     29.66 29.66 0    
Nov 26 21:53 SSE 7 6 Light Rain and Fog/Mist SCT031 OVC050 50 48     93%     29.69 29.69 0   1
Nov 26 20:53 SE 8 7 Light Rain SCT007 SCT020 OVC039 51 48     89%     29.72 29.72 0    
Nov 26 19:53 ESE 6 7 Light Rain FEW009 SCT018 OVC041 52 50     93%     29.75 29.74 0    
Nov 26 18:53 SE 7 5 Light Rain and Fog/Mist FEW004 BKN009 OVC039 52 50     93%     29.77 29.77 0 0  
Nov 26 17:53 Calm 6 Light Rain and Fog/Mist BKN007 OVC038 52 50     93%     29.79 29.78 0    
Nov 26 17:16 Calm 5 Light Rain and Fog/Mist BKN007 OVC036 53 51     93%     29.79   0    
Nov 26 17:04 Calm 5 Light Rain and Fog/Mist SCT006 OVC037 53 51     93%     29.79   0    
Nov 26 16:53 NE 3 5 Light Rain and Fog/Mist SCT020 OVC037 53 50     89%     29.8 29.79 0    
Nov 26 15:53 3 4 Light Rain and Fog/Mist OVC038 55 51     86%     29.81 29.8 0   0
Nov 26 14:53 SE 5 8 Light Rain OVC041 54 51     90%     29.8 29.8 0    
Nov 26 13:53 Calm 10 Light Rain OVC043 53 50     89%     29.83 29.82 0    
Nov 26 12:53 SE 11 10 Light Rain BKN048 BKN060 OVC075 52 49     89%     29.83 29.83 0 0  
Nov 26 11:53 SSE 13 10 Light Rain FEW048 BKN060 OVC070 51 48     89%     29.87 29.86 0    
Nov 26 10:53 SSE 15 5 Light Rain and Fog/Mist FEW045 OVC085 49 46     90% 43   29.9 29.9 0    
Nov 26 09:53 SSE 10 7 Light Rain OVC060 48 45     89% 43   29.93 29.93 0   0
Nov 26 08:53 SE 9 10 Light Rain BKN060 OVC080 47 44     90% 43   29.94 29.93 0    
Nov 26 07:53 SE 6 8 Light Rain BKN040 OVC050 47 44     90% 44   29.95 29.95 0    
Nov 26 06:53 Calm 6 Light Rain and Fog/Mist OVC049 46 44     93%     29.97 29.96 0 0  
Nov 26 05:53 S 5 8 Light Rain SCT048 OVC080 45 43     93% 43   29.97 29.97 0    
Nov 26 04:53 SE 5 6 Light Rain and Fog/Mist OVC047 46 44     93% 44   30.01 30.01 0    
Nov 26 03:53 Calm 8 Light Rain OVC055 46 43     89%     30.03 30.03 0   0
Nov 26 02:53 SSE 7 10 Cloudy OVC060 46 41     82% 42   30.02 30.02      
Nov 26 01:53 Calm 10 Cloudy OVC070 45 42     90%     30.04 30.04      
Nov 26 00:53 WSW 3 10 Cloudy OVC050 46 42     86% 45   30.06 30.06   0  
Nov 25 23:53 Calm 10 Cloudy OVC050 46 42     86%     30.09 30.09      
Nov 25 22:53 Calm 10 Cloudy OVC080 46 41     82%     30.09 30.09 0    
Nov 25 21:53 Calm 10 Light Rain OVC080 47 41     80%     30.11 30.1 0   0
Nov 25 20:53 Calm 10 Cloudy FEW070 BKN090 OVC110 47 41     80%     30.12 30.12      
Nov 25 19:53 SSE 6 10 Cloudy OVC090 48 39     71% 45   30.13 30.12 0    
Nov 25 18:53 SSE 5 10 Cloudy SCT060 OVC090 48 38     68% 46   30.13 30.13      
Nov 25 17:53 SSE 6 10 Mostly Cloudy SCT070 BKN085 BKN110 47 41     80% 44   30.14 30.14      
Nov 25 16:53 SSE 5 10 Cloudy OVC070 47 39     74% 45   30.14 30.13      
Nov 25 15:53 Calm 10 Clear   48 39     71%     30.14 30.13     0
Nov 25 14:53 SE 7 10 Cloudy SCT100 BKN120 OVC200 49 39     69% 46   30.13 30.12      
Nov 25 13:53 Calm 10 Cloudy BKN090 OVC110 49 36     61%     30.13 30.13      
Nov 25 12:53 Calm 10 Cloudy BKN090 OVC110 49 38     66%     30.13 30.13 0 0  
Nov 25 11:53 Calm 10 Mostly Cloudy BKN120 47 38     71%     30.14 30.14      
Nov 25 09:53 Calm 10 Partly Cloudy SCT110 41 38     89%     30.16 30.16      
May 15 05:53 SSW 6 10 Cloudy OVC008 55 51     86%     29.92 29.92      
May 14 14:53 NNW 8 10 Clear CLR 83 51     33%   81 29.88 29.88      
May 13 17:53 NW 7 10 Clear CLR 81 47     30%   80 29.87 29.87      
May 13 11:53 Calm 10 Clear CLR 71 54     55%   70 29.95 29.94      
May 13 10:53 6 10 Clear CLR 69 53     57%     29.95 29.95      
May 13 08:53 ENE 3 10 Clear CLR 64 51     63%     29.98 29.97      
May 12 01:53 SE 6 10 Clear CLR 53 47     80%     30.19 30.19      
May 12 00:53 Calm 10 Clear CLR 57 46     67%     30.19 30.19      
May 11 17:53 3 10 Partly Cloudy SCT046 67 46     47%     30.2 30.2      
Jun 12 03:53 SSE 8 10 Mostly Cloudy BKN060 53 51     93%     30 30      
Jun 12 02:53 SSE 7 10 Mostly Cloudy BKN055 54 51     90%     30 29.99      
Jun 11 22:53 Calm 10 Clear CLR 61 49     64%     29.99 29.99      
Jun 11 14:53 NW 8 10 Clear   69 48     47%     30 29.99      
Jun 11 01:53 Calm 10 Mostly Cloudy BKN085 57 47     69%     29.97 29.97      
Jun 10 23:53 Calm 10 Cloudy OVC075 59 47     64%     29.95 29.95      
Jun 10 15:53 NNW 7 10 Clear   65 44     47%     29.85 29.85      
Jun 08 08:44 SSE 8 10 Light Rain SCT007 BKN038 OVC095 57 57     100%     29.66   0    
Jun 07 14:53 6 10 Cloudy SCT140 OVC250 79 54     42%   79 29.69 29.69      
Jun 06 00:53 3 10 Clear CLR 60 46     60%     30.04 30.04      
Jun 05 20:53 NW 6 10 Clear CLR 65 46     50%     30.05 30.05      
Jun 05 19:53 NW 6 10 Mostly Cloudy BKN200 67 47     49%     30.05 30.05      
Jun 05 15:53 WNW 9 10 Mostly Cloudy BKN250 71 45     39%   70 30.08 30.07